Total_Precipitation_Accumulation
2.39 2.56 2.74 2.86 2.79 2.61 2.62 2.64 2.64 2.43 2.21 2.04 1.82 1.61 1.68 1.85 2.14 1.89 1.79 1.77 1.48 1.33 1.30 1.43 1.65 1.81 2.04 2.33 2.72 3.17 3.55 3.65 3.61 3.30 3.02 2.90 2.84 2.77
2.18 2.34 2.42 2.50 2.69 2.66 2.54 2.55 2.50 2.38 2.23 1.98 1.84 1.67 1.83 1.78 2.00 1.79 1.79 1.89 1.57 1.44 1.31 1.33 1.44 1.41 1.37 1.49 1.63 1.90 2.40 2.55 2.66 2.71 2.67 2.49 2.47 2.50
1.80 1.94 2.13 2.42 2.72 2.76 2.71 2.58 2.48 2.37 2.15 1.91 1.70 1.62 1.95 2.04 1.96 1.84 1.83 1.79 1.58 1.54 1.39 1.29 1.32 1.29 1.23 1.15 1.17 1.34 1.63 1.87 1.96 2.04 2.14 2.18 2.31 2.40
1.62 1.73 1.94 2.26 2.60 2.78 2.87 2.74 2.58 2.47 2.33 2.16 1.82 1.59 1.72 2.05 2.15 2.08 1.91 1.76 1.62 1.62 1.46 1.32 1.27 1.24 1.18 1.10 1.07 1.11 1.21 1.38 1.57 1.62 1.62 1.78 2.08 2.35
1.59 1.66 1.71 1.92 2.13 2.30 2.48 2.61 2.57 2.56 2.53 2.28 1.96 1.69 1.64 1.80 2.06 2.07 2.01 2.02 1.80 1.74 1.73 1.58 1.40 1.32 1.25 1.11 1.08 1.10 1.13 1.18 1.20 1.27 1.32 1.40 1.57 1.86
1.38 1.45 1.50 1.56 1.77 1.92 2.03 2.24 2.43 2.68 2.74 2.59 2.30 1.96 1.84 1.73 1.83 2.03 2.12 2.05 2.01 1.84 1.82 1.65 1.57 1.49 1.46 1.32 1.18 1.09 1.11 1.18 1.17 1.15 1.20 1.25 1.26 1.38
1.29 1.27 1.30 1.35 1.48 1.69 1.72 1.93 2.23 2.51 2.61 2.70 2.57 2.24 1.96 1.82 1.59 1.71 2.01 2.24 2.26 2.20 2.15 1.84 1.67 1.48 1.44 1.48 1.45 1.32 1.17 1.12 1.10 1.10 1.19 1.26 1.32 1.35
1.28 1.25 1.27 1.22 1.21 1.32 1.46 1.58 1.84 2.07 2.21 2.32 2.34 2.17 1.95 1.82 1.79 1.76 1.87 2.07 2.15 1.99 1.97 2.04 1.94 1.77 1.64 1.52 1.58 1.64 1.55 1.44 1.32 1.25 1.29 1.32 1.38 1.41
1.32 1.36 1.29 1.20 1.24 1.24 1.30 1.30 1.33 1.54 1.78 2.01 2.06 1.94 2.02 1.94 1.91 1.82 1.83 1.87 1.86 1.90 1.91 1.98 1.98 1.90 1.80 1.80 1.82 1.67 1.61 1.54 1.50 1.44 1.41 1.40 1.35 1.35
1.24 1.22 1.31 1.31 1.35 1.43 1.34 1.35 1.25 1.23 1.35 1.38 1.54 1.82 2.02 2.21 2.22 2.13 2.14 2.05 1.96 2.01 1.97 1.94 1.80 1.74 1.66 1.69 1.78 1.61 1.49 1.44 1.44 1.47 1.45 1.41 1.32 1.30
1.19 1.22 1.35 1.40 1.63 1.72 1.53 1.53 1.43 1.36 1.36 1.47 1.57 1.72 1.88 2.00 2.18 2.25 2.23 2.22 2.08 1.97 1.85 1.78 1.66 1.69 1.68 1.59 1.58 1.61 1.47 1.38 1.37 1.41 1.42 1.36 1.33 1.40
1.32 1.35 1.65 1.64 1.73 1.70 1.53 1.61 1.52 1.34 1.26 1.30 1.36 1.46 1.52 1.65 1.83 1.87 2.07 2.26 2.17 2.01 1.72 1.62 1.58 1.65 1.75 1.61 1.52 1.46 1.42 1.45 1.42 1.39 1.42 1.43 1.45 1.41
1.45 1.43 1.42 1.65 1.62 1.57 1.55 1.51 1.61 1.50 1.37 1.37 1.34 1.34 1.38 1.45 1.51 1.58 1.74 1.96 2.11 2.01 1.76 1.74 1.68 1.64 1.56 1.43 1.44 1.41 1.37 1.39 1.40 1.41 1.48 1.56 1.56 1.45
1.52 1.38 1.27 1.58 1.55 1.48 1.40 1.43 1.62 1.65 1.57 1.59 1.54 1.43 1.34 1.31 1.32 1.40 1.51 1.64 1.77 1.83 1.85 1.86 1.83 1.75 1.71 1.51 1.38 1.36 1.40 1.44 1.46 1.44 1.40 1.61 1.69 1.73
1.44 1.45 1.41 1.45 1.37 1.30 1.44 1.52 1.53 1.50 1.58 1.63 1.49 1.31 1.23 1.24 1.32 1.44 1.57 1.67 1.73 1.71 1.68 1.74 1.83 1.91 1.94 1.79 1.58 1.44 1.44 1.45 1.44 1.44 1.40 1.40 1.46 1.63
1.30 1.36 1.33 1.26 1.24 1.22 1.31 1.44 1.46 1.53 1.59 1.52 1.40 1.25 1.24 1.32 1.36 1.39 1.56 1.71 1.85 1.79 1.72 1.80 1.89 2.00 2.08 1.90 1.79 1.65 1.55 1.53 1.49 1.55 1.57 1.48 1.41 1.44
1.58 1.40 1.28 1.23 1.19 1.15 1.18 1.24 1.31 1.34 1.41 1.39 1.36 1.35 1.34 1.36 1.35 1.32 1.43 1.52 1.54 1.49 1.54 1.66 1.90 2.06 2.06 2.04 2.02 1.85 1.80 1.73 1.72 1.79 1.80 1.71 1.52 1.41
2.03 1.85 1.73 1.58 1.45 1.32 1.25 1.22 1.17 1.16 1.21 1.28 1.33 1.33 1.37 1.44 1.48 1.42 1.42 1.47 1.47 1.36 1.34 1.44 1.73 2.09 2.27 2.15 1.94 1.80 1.79 1.73 1.75 1.94 2.00 1.89 1.64 1.47
1.93 1.88 1.81 1.61 1.46 1.38 1.27 1.17 1.10 1.08 1.16 1.18 1.23 1.30 1.33 1.39 1.46 1.45 1.39 1.41 1.44 1.40 1.36 1.42 1.61 1.85 2.04 1.92 1.69 1.55 1.63 1.70 1.82 1.94 2.00 1.88 1.66 1.54
1.49 1.53 1.46 1.38 1.28 1.15 1.09 1.07 1.03 1.07 1.15 1.16 1.17 1.20 1.26 1.35 1.39 1.45 1.44 1.42 1.44 1.43 1.38 1.34 1.39 1.54 1.69 1.64 1.52 1.40 1.44 1.60 1.70 1.72 1.71 1.71 1.67 1.76
1.04 1.05 1.04 1.04 1.02 0.96 0.93 0.92 0.96 1.02 1.08 1.14 1.17 1.16 1.17 1.25 1.33 1.40 1.48 1.59 1.55 1.48 1.45 1.34 1.31 1.52 1.62 1.73 1.66 1.33 1.28 1.54 1.67 1.65 1.69 1.82 1.82 1.70
0.82 0.81 0.83 0.85 0.88 0.89 0.91 0.92 0.93 0.98 1.05 1.09 1.13 1.19 1.22 1.23 1.25 1.32 1.42 1.51 1.51 1.47 1.44 1.40 1.42 1.53 1.65 1.78 1.70 1.46 1.37 1.43 1.68 1.92 1.87 1.84 1.76 1.62
0.80 0.81 0.80 0.82 0.87 0.88 0.93 0.98 1.02 1.04 1.07 1.14 1.14 1.18 1.25 1.29 1.30 1.33 1.38 1.42 1.47 1.46 1.45 1.48 1.49 1.57 1.65 1.72 1.75 1.67 1.61 1.55 1.59 1.75 1.80 1.89 1.72 1.42